RYR65BP EIDW-EGBB

Flight info

Callsign RYR65BP
Flight time N/A
Altitude 25000
Route DEXEN2J DEXEN Y124 DOLOP
Aircraft B738/M-SDE2E3FGHIRWXY/LB1

Departure

Time 2026-05-04 20:51
Airport Dublin Airport (EIDW)

Arrival

Time N/A
Airport Birmingham Airport (EGBB)
Time Latitude Longitude Altitude Speed Heading
2026-05-04 20:38 53.43105 -6.24763 285 ft 0 kts 185°
2026-05-04 20:44 53.43114 -6.24761 216 ft 3 kts 188°
2026-05-04 20:44 53.43134 -6.24755 216 ft 3 kts 194°
2026-05-04 20:44 53.43154 -6.24746 215 ft 3 kts 199°
2026-05-04 20:45 53.43173 -6.24734 216 ft 3 kts 198°
2026-05-04 20:45 53.43191 -6.24727 215 ft 3 kts 174°
2026-05-04 20:45 53.43201 -6.24728 219 ft 2 kts 107°
2026-05-04 20:45 53.43202 -6.24731 219 ft 1 kts 94°
2026-05-04 20:47 53.43201 -6.24724 222 ft 3 kts 94°
2026-05-04 20:48 53.43198 -6.24651 210 ft 9 kts 95°
2026-05-04 20:48 53.43192 -6.24549 210 ft 9 kts 95°
2026-05-04 20:48 53.43196 -6.24452 210 ft 8 kts 63°
2026-05-04 20:48 53.43247 -6.24413 210 ft 8 kts
2026-05-04 20:49 53.43303 -6.24407 218 ft 8 kts 355°
2026-05-04 20:49 53.43344 -6.24462 213 ft 8 kts 287°
2026-05-04 20:49 53.43378 -6.24554 214 ft 11 kts 341°
2026-05-04 20:49 53.43459 -6.24548 220 ft 12 kts
2026-05-04 20:50 53.43517 -6.24582 213 ft 10 kts 303°
2026-05-04 20:50 53.43530 -6.24666 220 ft 0 kts 275°
2026-05-04 20:50 53.43530 -6.24667 220 ft 0 kts 275°
2026-05-04 20:50 53.43546 -6.24966 211 ft 69 kts 276°
2026-05-04 20:51 53.43611 -6.26237 212 ft 148 kts 273°
2026-05-04 20:51 53.43689 -6.28188 687 ft 178 kts 273°
2026-05-04 20:51 53.43816 -6.30398 1422 ft 201 kts 280°
2026-05-04 20:51 53.44113 -6.32684 2321 ft 201 kts 288°
2026-05-04 20:52 53.44565 -6.34828 3461 ft 189 kts 300°
2026-05-04 20:52 53.45136 -6.35968 3931 ft 198 kts 324°
2026-05-04 20:52 53.46532 -6.36628 4176 ft 226 kts
2026-05-04 20:52 53.48429 -6.34953 4742 ft 246 kts 44°
2026-05-04 20:53 53.49323 -6.32462 5300 ft 255 kts 73°
2026-05-04 20:53 53.49317 -6.29486 5875 ft 261 kts 104°
2026-05-04 20:53 53.48742 -6.26515 6225 ft 279 kts 109°
2026-05-04 20:53 53.48093 -6.23379 6873 ft 287 kts 109°
2026-05-04 20:54 53.47440 -6.20241 7749 ft 287 kts 109°
2026-05-04 20:54 53.46999 -6.18096 8359 ft 287 kts 108°
2026-05-04 20:54 53.46139 -6.13849 9470 ft 291 kts 108°
2026-05-04 20:54 53.45492 -6.10605 10276 ft 294 kts 108°
2026-05-04 20:55 53.45057 -6.08405 10605 ft 304 kts 108°
2026-05-04 20:55 53.44130 -6.03691 10867 ft 336 kts 108°
2026-05-04 20:55 53.43385 -5.99892 11426 ft 345 kts 108°
2026-05-04 20:55 53.42640 -5.96085 12186 ft 348 kts 108°
2026-05-04 20:56 53.41881 -5.92206 12976 ft 350 kts 108°
2026-05-04 20:56 53.41112 -5.88276 13667 ft 356 kts 108°
2026-05-04 20:56 53.40338 -5.84323 14348 ft 359 kts 108°
2026-05-04 20:56 53.39816 -5.81662 14836 ft 360 kts 108°
2026-05-04 20:57 53.38774 -5.76357 15755 ft 363 kts 108°
2026-05-04 20:57 53.38245 -5.73670 16168 ft 366 kts 108°
2026-05-04 20:57 53.37449 -5.69630 16868 ft 368 kts 108°